| time (UTC) | temp C | wind direction | speed KPH | gust KPH | rain 1hr cm | rain 24hr cm | rain mn cm | humidity % | barometer mb |
| 20260505124549 | 16 | 224 | 1.6 | 0.0 | 0.00 | 0.00 | 0.00 | 58 | 1019.9 |
| 20260505123111 | 16 | 143 | 1.6 | 0.0 | 0.00 | 0.00 | 0.00 | 58 | 1019.9 |
| 20260505121501 | 15 | 66 | 1.6 | 0.0 | 0.00 | 0.00 | 0.00 | 59 | 1019.7 |
| 20260505120054 | 15 | 281 | 1.6 | 0.0 | 0.00 | 0.00 | 0.00 | 60 | 1019.7 |
| 20260505114604 | 15 | 74 | 1.6 | 0.0 | 0.00 | 0.00 | 0.00 | 60 | 1019.7 |
| 20260505113006 | 14 | 170 | 1.6 | 0.0 | 0.00 | 0.00 | 0.00 | 60 | 1019.6 |
| 20260505111514 | 13 | 127 | 1.6 | 0.0 | 0.00 | 0.00 | 0.00 | 61 | 1019.5 |
| 20260505101513 | 13 | 177 | 0.0 | 0.0 | 0.00 | 0.00 | 0.00 | 60 | 1019.0 |
| 20260505100110 | 13 | 68 | 1.6 | 0.0 | 0.00 | 0.00 | 0.00 | 60 | 1018.7 |
| 20260505094506 | 13 | 96 | 1.6 | 0.0 | 0.00 | 0.00 | 0.00 | 60 | 1018.6 |
| 20260505093018 | 13 | 95 | 1.6 | 0.0 | 0.00 | 0.00 | 0.00 | 59 | 1018.5 |
| 20260505091533 | 13 | 312 | 0.0 | 0.0 | 0.00 | 0.00 | 0.00 | 59 | 1018.4 |
| 20260505090017 | 14 | 309 | 0.0 | 0.0 | 0.00 | 0.00 | 0.00 | 58 | 1018.3 |
| 20260505084526 | 14 | 299 | 0.0 | 0.0 | 0.00 | 0.00 | 0.00 | 57 | 1018.3 |
| 20260505083035 | 14 | 300 | 0.0 | 0.0 | 0.00 | 0.00 | 0.00 | 56 | 1018.3 |
| 20260505081548 | 15 | 299 | 0.0 | 0.0 | 0.00 | 0.00 | 0.00 | 56 | 1018.2 |
| 20260505080045 | 15 | 298 | 0.0 | 0.0 | 0.00 | 0.00 | 0.00 | 55 | 1018.1 |
| 20260505074537 | 15 | 298 | 0.0 | 0.0 | 0.00 | 0.00 | 0.00 | 55 | 1017.9 |
| 20260505073055 | 15 | 299 | 0.0 | 0.0 | 0.00 | 0.00 | 0.00 | 54 | 1017.9 |
| 20260505071556 | 15 | 298 | 0.0 | 0.0 | 0.00 | 0.00 | 0.00 | 54 | 1017.9 |
| 20260505070049 | 15 | 229 | 0.0 | 0.0 | 0.00 | 0.00 | 0.00 | 53 | 1017.8 |
| 20260505064551 | 16 | 228 | 0.0 | 0.0 | 0.00 | 0.00 | 0.00 | 53 | 1017.8 |
| 20260505063105 | 16 | 281 | 0.0 | 0.0 | 0.00 | 0.00 | 0.00 | 52 | 1017.9 |
| 20260505061510 | 16 | 186 | 0.0 | 0.0 | 0.00 | 0.00 | 0.00 | 52 | 1018.0 |
| 20260505060048 | 16 | 199 | 0.0 | 0.0 | 0.00 | 0.00 | 0.00 | 51 | 1018.0 |
| 20260505054601 | 16 | 225 | 1.6 | 0.0 | 0.00 | 0.00 | 0.00 | 51 | 1018.1 |
| 20260505053009 | 16 | 279 | 1.6 | 0.0 | 0.00 | 0.00 | 0.00 | 50 | 1018.2 |
| 20260505051520 | 17 | 94 | 1.6 | 0.0 | 0.00 | 0.00 | 0.00 | 50 | 1018.2 |
| 20260505050129 | 17 | 62 | 1.6 | 0.0 | 0.00 | 0.00 | 0.00 | 50 | 1018.3 |
| 20260505041546 | 17 | 53 | 1.6 | 0.0 | 0.00 | 0.00 | 0.00 | 49 | 1018.1 |
| 20260505040020 | 17 | 82 | 0.0 | 0.0 | 0.00 | 0.00 | 0.00 | 49 | 1018.1 |
| 20260505034530 | 17 | 140 | 3.2 | 0.0 | 0.00 | 0.00 | 0.00 | 49 | 1018.0 |
| 20260505033045 | 17 | 49 | 1.6 | 0.0 | 0.00 | 0.00 | 0.00 | 49 | 1017.8 |
| 20260505031547 | 18 | 123 | 3.2 | 0.0 | 0.00 | 0.00 | 0.00 | 48 | 1018.1 |
| 20260505030024 | 18 | 265 | 1.6 | 0.0 | 0.00 | 0.00 | 0.00 | 48 | 1017.9 |
| 20260505024529 | 18 | 212 | 3.2 | 0.0 | 0.00 | 0.00 | 0.00 | 48 | 1018.1 |
| 20260505023044 | 18 | 87 | 1.6 | 0.0 | 0.00 | 0.00 | 0.00 | 49 | 1017.8 |
| 20260505021546 | 18 | 223 | 3.2 | 0.0 | 0.00 | 0.00 | 0.00 | 49 | 1017.9 |
| 20260505020029 | 18 | 115 | 3.2 | 0.0 | 0.00 | 0.00 | 0.00 | 48 | 1017.9 |
| 20260505014600 | 19 | 105 | 1.6 | 0.0 | 0.00 | 0.00 | 0.00 | 48 | 1017.7 |
| 20260505013052 | 19 | 60 | 3.2 | 0.0 | 0.00 | 0.00 | 0.00 | 48 | 1017.6 |
| 20260505011605 | 19 | 248 | 1.6 | 0.0 | 0.00 | 0.00 | 0.00 | 47 | 1017.3 |
| 20260505010044 | 20 | 178 | 1.6 | 0.0 | 0.00 | 0.00 | 0.00 | 47 | 1017.1 |
| 20260505004552 | 20 | 191 | 1.6 | 0.0 | 0.00 | 0.00 | 0.00 | 46 | 1016.9 |
| 20260505003106 | 20 | 115 | 3.2 | 0.0 | 0.00 | 0.00 | 0.00 | 45 | 1016.9 |
| 20260505001501 | 21 | 201 | 1.6 | 0.0 | 0.00 | 0.00 | 0.00 | 43 | 1016.6 |
| 20260505000117 | 21 | 175 | 3.2 | 0.0 | 0.00 | 0.00 | 0.00 | 42 | 1016.6 |
| 20260504234615 | 22 | 182 | 3.2 | 0.0 | 0.00 | 0.00 | 0.00 | 41 | 1016.3 |
| 20260504233006 | 22 | 211 | 1.6 | 0.0 | 0.00 | 0.00 | 0.00 | 38 | 1016.2 |
| 20260504231515 | 23 | 245 | 3.2 | 0.0 | 0.00 | 0.00 | 0.00 | 36 | 1016.0 |
| 20260504230105 | 24 | 190 | 4.8 | 0.0 | 0.00 | 0.00 | 0.00 | 33 | 1015.7 |
| 20260504224502 | 25 | 253 | 3.2 | 0.0 | 0.00 | 0.00 | 0.00 | 23 | 1015.6 |
| 20260504223010 | 26 | 103 | 3.2 | 0.0 | 0.00 | 0.00 | 0.00 | 22 | 1015.5 |
| 20260504221521 | 26 | 190 | 3.2 | 0.0 | 0.00 | 0.00 | 0.00 | 22 | 1015.5 |
| 20260504220008 | 26 | 153 | 1.6 | 0.0 | 0.00 | 0.00 | 0.00 | 22 | 1015.6 |
| 20260504214516 | 26 | 355 | 1.6 | 0.0 | 0.00 | 0.00 | 0.00 | 22 | 1015.6 |
| 20260504213045 | 27 | 211 | 3.2 | 0.0 | 0.00 | 0.00 | 0.00 | 21 | 1015.6 |
| 20260504211534 | 27 | 141 | 3.2 | 0.0 | 0.00 | 0.00 | 0.00 | 19 | 1015.6 |
| 20260504210018 | 27 | 146 | 3.2 | 0.0 | 0.00 | 0.00 | 0.00 | 20 | 1015.6 |
| 20260504204527 | 28 | 193 | 3.2 | 0.0 | 0.00 | 0.00 | 0.00 | 20 | 1015.7 |
| 20260504203037 | 28 | 238 | 3.2 | 0.0 | 0.00 | 0.00 | 0.00 | 20 | 1015.8 |
| 20260504201547 | 28 | 212 | 3.2 | 0.0 | 0.00 | 0.00 | 0.00 | 19 | 1015.9 |
| 20260504200033 | 28 | 180 | 3.2 | 0.0 | 0.00 | 0.00 | 0.00 | 18 | 1016.0 |
| 20260504194555 | 28 | 170 | 3.2 | 0.0 | 0.00 | 0.00 | 0.00 | 21 | 1016.2 |
| 20260504193059 | 28 | 181 | 3.2 | 0.0 | 0.00 | 0.00 | 0.00 | 19 | 1016.5 |
| 20260504191557 | 27 | 245 | 4.8 | 0.0 | 0.00 | 0.00 | 0.00 | 20 | 1016.5 |
| 20260504190043 | 28 | 82 | 3.2 | 0.0 | 0.00 | 0.00 | 0.00 | 21 | 1017.0 |
| 20260504184559 | 27 | 207 | 4.8 | 0.0 | 0.00 | 0.00 | 0.00 | 22 | 1017.0 |
| 20260504183059 | 27 | 280 | 3.2 | 0.0 | 0.00 | 0.00 | 0.00 | 21 | 1017.3 |
| 20260504181503 | 27 | 273 | 4.8 | 0.0 | 0.00 | 0.00 | 0.00 | 22 | 1017.3 |
| 20260504180055 | 27 | 55 | 3.2 | 0.0 | 0.00 | 0.00 | 0.00 | 24 | 1017.7 |
| 20260504174502 | 27 | 126 | 3.2 | 0.0 | 0.00 | 0.00 | 0.00 | 24 | 1017.8 |
| 20260504173013 | 27 | 138 | 3.2 | 0.0 | 0.00 | 0.00 | 0.00 | 23 | 1017.8 |
| 20260504171521 | 27 | 261 | 3.2 | 0.0 | 0.00 | 0.00 | 0.00 | 25 | 1017.9 |